EW3605 Weather Reports


Display with metric or nautical units.
time (UTC)temp
F
wind
direction
speed
MPH
gust
MPH
rain 1hr
in
rain 24hr
in
rain mn
in
humidity
%
barometer
mb
20260505184542 76 162 0.0 0.0 0.00 0.00 0.00 61 1011.9
20260505183039 77 174 0.0 0.0 0.00 0.00 0.00 61 1011.9
20260505181559 77 180 0.0 0.0 0.00 0.00 0.00 62 1011.7
20260505180047 77 174 0.0 0.0 0.00 0.00 0.00 63 1011.6
20260505174540 78 122 0.0 0.0 0.00 0.00 0.00 63 1011.3
20260505173036 77 115 0.0 0.0 0.00 0.00 0.00 62 1011.4
20260505171540 77 273 0.0 0.0 0.00 0.00 0.00 62 1011.8
20260505170034 77 323 0.0 0.0 0.00 0.00 0.00 62 1012.0
20260505164534 77 315 0.0 0.0 0.00 0.00 0.00 62 1012.2
20260505163032 77 270 0.0 0.0 0.00 0.00 0.00 61 1012.4
20260505161529 76 323 0.0 0.0 0.00 0.00 0.00 57 1012.3
20260505153033 73 297 0.0 0.0 0.00 0.00 0.00 44 1013.0
20260505151517 72 309 0.0 0.0 0.00 0.00 0.00 40 1013.2
20260505124548 65 98 0.0 0.0 0.00 0.00 0.00 26 1013.3
20260505123052 64 87 0.0 0.0 0.00 0.00 0.00 29 1013.3
20260505121542 63 72 0.0 0.0 0.00 0.00 0.00 31 1013.3
20260505114536 62 78 0.0 0.0 0.00 0.00 0.00 30 1013.1
20260505113034 61 56 0.0 0.0 0.00 0.00 0.00 29 1012.8
20260505111535 61 65 0.0 0.0 0.00 0.00 0.00 32 1012.7
20260505101521 60 65 0.0 0.0 0.00 0.00 0.00 43 1012.2
20260505100019 60 68 0.0 0.0 0.00 0.00 0.00 44 1012.1
20260505094519 60 63 0.0 0.0 0.00 0.00 0.00 46 1011.9
20260505093015 60 72 0.0 0.0 0.00 0.00 0.00 47 1011.7
20260505091514 59 74 0.0 0.0 0.00 0.00 0.00 47 1011.7
20260505090015 59 72 0.0 0.0 0.00 0.00 0.00 48 1011.6
20260505084513 59 73 0.0 0.0 0.00 0.00 0.00 47 1011.5
20260505083011 59 65 0.0 0.0 0.00 0.00 0.00 50 1011.4
20260505081516 59 61 0.0 0.0 0.00 0.00 0.00 53 1011.5
20260505080010 59 68 0.0 0.0 0.00 0.00 0.00 57 1011.2
20260505074510 59 83 0.0 0.0 0.00 0.00 0.00 59 1011.2
20260505073010 60 83 0.0 0.0 0.00 0.00 0.00 59 1011.5
20260505071508 60 83 0.0 0.0 0.00 0.00 0.00 59 1011.5
20260505070007 59 72 0.0 0.0 0.00 0.00 0.00 57 1011.2
20260505064508 59 66 0.0 0.0 0.00 0.00 0.00 56 1011.3
20260505063007 58 69 0.0 0.0 0.00 0.00 0.00 55 1011.3
20260505061505 59 57 0.0 0.0 0.00 0.00 0.00 56 1011.3
20260505060004 59 92 0.0 0.0 0.00 0.00 0.00 55 1011.3
20260505054510 59 70 0.0 0.0 0.00 0.00 0.00 56 1011.3
20260505053001 59 68 0.0 0.0 0.00 0.00 0.00 57 1011.5
20260505051559 58 71 0.0 0.0 0.00 0.00 0.00 54 1011.6
20260505041544 55 96 0.0 0.0 0.00 0.00 0.00 51 1011.1
20260505040042 54 58 0.0 0.0 0.00 0.00 0.00 53 1011.4
20260505034554 54 70 0.0 0.0 0.00 0.00 0.00 53 1011.4
20260505033039 53 4 0.0 0.0 0.00 0.00 0.00 52 1011.5
20260505031533 53 50 0.0 0.0 0.00 0.00 0.00 55 1011.7
20260505030044 54 57 0.0 0.0 0.00 0.00 0.00 54 1011.7
20260505024531 54 72 0.0 0.0 0.00 0.00 0.00 58 1011.7
20260505023039 54 49 0.0 0.0 0.00 0.00 0.00 58 1011.7
20260505021531 54 72 0.0 0.0 0.00 0.00 0.00 59 1011.7
20260505020029 54 87 0.0 0.0 0.00 0.00 0.00 59 1011.4
20260505014536 54 65 0.0 0.0 0.00 0.00 0.00 60 1011.4
20260505013028 54 67 0.0 0.0 0.00 0.00 0.00 63 1011.3
20260505011529 55 60 0.0 0.0 0.00 0.00 0.00 64 1011.3
20260505010027 56 45 0.0 0.0 0.00 0.00 0.00 65 1011.1
20260505004551 57 53 0.0 0.0 0.00 0.00 0.00 65 1011.0
20260505003027 56 63 0.0 0.0 0.00 0.00 0.00 66 1010.9
20260505001526 56 53 0.0 0.0 0.00 0.00 0.00 66 1010.7
20260505000025 57 75 0.0 0.0 0.00 0.00 0.00 67 1010.7
20260504234525 57 77 0.0 0.0 0.00 0.00 0.00 67 1010.6
20260504233025 57 77 0.0 0.0 0.00 0.00 0.00 67 1010.5
20260504231524 58 74 0.0 0.0 0.00 0.00 0.00 67 1010.5
20260504230024 59 72 0.0 0.0 0.00 0.00 0.00 65 1010.5
20260504224531 60 72 0.0 0.0 0.00 0.00 0.00 64 1010.4
20260504223022 60 104 0.0 0.0 0.00 0.00 0.00 64 1010.0
20260504221525 61 86 0.0 0.0 0.00 0.00 0.00 62 1009.9
20260504220021 62 65 0.0 0.0 0.00 0.00 0.00 61 1010.0
20260504214520 63 46 0.0 0.0 0.00 0.00 0.00 60 1010.1
20260504213032 64 42 0.0 0.0 0.00 0.00 0.00 59 1009.8
20260504211519 65 63 0.0 0.0 0.00 0.00 0.00 57 1009.6
20260504210018 67 306 0.0 0.0 0.00 0.00 0.00 55 1009.8
20260504204518 68 322 0.0 0.0 0.00 0.00 0.00 53 1009.8
20260504203017 68 324 0.0 0.0 0.00 0.00 0.00 51 1009.6
20260504201516 69 339 0.0 0.0 0.00 0.00 0.00 48 1009.5
20260504200016 70 314 0.0 0.0 0.00 0.00 0.00 49 1009.5
20260504194521 70 285 0.0 0.0 0.00 0.00 0.00 50 1009.2
20260504193018 71 39 0.0 0.0 0.00 0.00 0.00 48 1009.1
20260504191514 71 47 0.0 0.0 0.00 0.00 0.00 46 1009.2
20260504190017 70 23 0.0 0.0 0.00 0.00 0.00 47 1009.3